FW8305 Weather Reports


Display with metric or nautical units.
time (UTC)temp
F
wind
direction
speed
MPH
gust
MPH
rain 1hr
in
rain 24hr
in
rain mn
in
humidity
%
barometer
mb
20260906170518 91 36 6.0 10.0 0.00 0.00 0.00 68 1016.8
20260906170033 90 16 6.0 11.0 0.00 0.00 0.00 68 1016.9
20260906165519 90 39 7.0 11.0 0.00 0.00 0.00 68 1017.0
20260906165019 90 43 5.0 11.0 0.00 0.00 0.00 68 1017.0
20260906164534 90 32 5.0 10.0 0.00 0.00 0.00 70 1017.1
20260906164021 90 30 6.0 10.0 0.00 0.00 0.00 70 1017.1
20260906163520 90 41 5.0 9.0 0.00 0.00 0.00 70 1017.0
20260906163036 90 49 4.0 7.0 0.00 0.00 0.00 70 1017.0
20260906162517 89 65 3.0 8.0 0.00 0.00 0.00 71 1017.1
20260906162020 89 65 4.0 8.0 0.00 0.00 0.00 69 1017.0
20260906161547 89 34 3.0 6.0 0.00 0.00 0.00 72 1017.1
20260906161016 89 57 1.0 5.0 0.00 0.00 0.00 75 1017.0
20260906160516 88 34 2.0 6.0 0.00 0.00 0.00 72 1016.9
20260906160036 87 96 3.0 8.0 0.00 0.00 0.00 73 1016.9
20260906155520 87 107 3.0 8.0 0.00 0.00 0.00 74 1016.9
20260906155015 87 47 5.0 8.0 0.00 0.00 0.00 74 1016.8
20260906154533 87 60 1.0 7.0 0.00 0.00 0.00 74 1016.8
20260906154021 87 82 3.0 7.0 0.00 0.00 0.00 75 1016.8
20260906153517 86 79 4.0 7.0 0.00 0.00 0.00 75 1017.0
20260906153044 86 73 3.0 6.0 0.00 0.00 0.00 77 1016.8
20260906152518 86 99 3.0 7.0 0.00 0.00 0.00 76 1017.0
20260906152016 85 95 3.0 10.0 0.00 0.00 0.00 77 1016.8
20260906151535 85 148 4.0 10.0 0.00 0.00 0.00 77 1016.7
20260906151019 85 49 3.0 7.0 0.00 0.00 0.00 77 1016.8
20260906150518 85 126 3.0 6.0 0.00 0.00 0.00 78 1016.7
20260906150037 84 42 3.0 6.0 0.00 0.00 0.00 78 1016.7
20260906145520 84 40 4.0 7.0 0.00 0.00 0.00 78 1016.7
20260906145018 84 113 4.0 7.0 0.00 0.00 0.00 79 1016.8
20260906144536 84 80 4.0 7.0 0.00 0.00 0.00 79 1016.7
20260906144018 84 45 3.0 7.0 0.00 0.00 0.00 79 1016.8
20260906143518 83 54 2.0 5.0 0.00 0.00 0.00 80 1016.7
20260906143034 83 124 2.0 7.0 0.00 0.00 0.00 80 1016.7
20260906142516 83 96 3.0 7.0 0.00 0.00 0.00 81 1016.7
20260906142023 82 117 4.0 7.0 0.00 0.00 0.00 81 1016.6
20260906141533 82 108 3.0 7.0 0.00 0.00 0.00 82 1016.6
20260906141020 82 76 4.0 8.0 0.00 0.00 0.00 81 1016.6
20260906140520 81 36 4.0 9.0 0.00 0.00 0.00 82 1016.6
20260906140035 81 154 4.0 9.0 0.00 0.00 0.00 83 1016.5
20260906135519 81 101 4.0 8.0 0.00 0.00 0.00 83 1016.5
20260906135017 80 42 5.0 9.0 0.00 0.00 0.00 83 1016.5
20260906134531 80 89 3.0 9.0 0.00 0.00 0.00 83 1016.5
20260906134016 80 123 4.0 8.0 0.00 0.00 0.00 83 1016.5
20260906133517 80 84 4.0 8.0 0.00 0.00 0.00 84 1016.4
20260906133041 80 96 4.0 9.0 0.00 0.00 0.00 84 1016.5
20260906132521 79 101 4.0 9.0 0.00 0.00 0.00 84 1016.5
20260906132017 79 68 4.0 9.0 0.00 0.00 0.00 84 1016.4
20260906131543 79 46 4.0 7.0 0.00 0.00 0.00 84 1016.5
20260906131021 79 82 1.0 6.0 0.00 0.00 0.00 85 1016.3
20260906130519 78 0 2.0 6.0 0.00 0.00 0.00 85 1016.3
20260906130040 78 58 1.0 5.0 0.00 0.00 0.00 86 1016.2
20260906125517 77 49 3.0 4.0 0.00 0.00 0.00 87 1016.2
20260906125019 77 58 2.0 4.0 0.00 0.00 0.00 87 1016.2
20260906124534 77 58 1.0 3.0 0.00 0.00 0.00 86 1016.1
20260906124018 77 61 1.0 3.0 0.00 0.00 0.00 86 1016.1
20260906123518 76 0 0.0 1.0 0.00 0.00 0.00 87 1016.0
20260906123037 76 0 0.0 1.0 0.00 0.00 0.00 87 1015.9
20260906122519 76 0 0.0 1.0 0.00 0.00 0.00 86 1015.9
20260906122020 76 0 0.0 1.0 0.00 0.00 0.00 87 1015.9
20260906121537 75 0 0.0 1.0 0.00 0.00 0.00 87 1015.8
20260906121028 75 0 0.0 1.0 0.00 0.00 0.00 87 1015.8
20260906120519 75 0 0.0 1.0 0.00 0.00 0.00 87 1015.7
20260906120034 75 0 0.0 1.0 0.00 0.00 0.00 87 1015.6
20260906115518 75 0 0.0 1.0 0.00 0.00 0.00 87 1015.6
20260906115017 75 0 0.0 0.0 0.00 0.00 0.00 86 1015.5
20260906114544 75 0 0.0 1.0 0.00 0.00 0.00 87 1015.5
20260906114017 75 0 0.0 1.0 0.00 0.00 0.00 87 1015.4
20260906113518 75 0 0.0 1.0 0.00 0.00 0.00 87 1015.4
20260906113036 74 56 0.0 1.0 0.00 0.00 0.00 88 1015.5
20260906112518 74 0 0.0 0.0 0.00 0.00 0.00 87 1015.4
20260906112020 74 0 0.0 0.0 0.00 0.00 0.00 87 1015.5
20260906111542 74 0 0.0 0.0 0.00 0.00 0.00 87 1015.5
20260906111018 74 0 0.0 0.0 0.00 0.00 0.00 86 1015.4
20260906110516 74 0 0.0 0.0 0.00 0.00 0.00 86 1015.4
20260906110031 75 0 0.0 1.0 0.00 0.00 0.00 86 1015.4
20260906105518 74 0 0.0 1.0 0.00 0.00 0.00 86 1015.4
20260906105018 74 0 0.0 0.0 0.00 0.00 0.00 86 1015.5
20260906104537 74 0 0.0 0.0 0.00 0.00 0.00 86 1015.4
20260906104018 74 0 0.0 0.0 0.00 0.00 0.00 86 1015.3
20260906103516 74 0 0.0 0.0 0.00 0.00 0.00 86 1015.4
20260906103033 74 0 0.0 0.0 0.00 0.00 0.00 87 1015.3
20260906102523 73 0 0.0 0.0 0.00 0.00 0.00 87 1015.3
20260906102019 73 0 0.0 0.0 0.00 0.00 0.00 86 1015.3
20260906101537 74 0 0.0 0.0 0.00 0.00 0.00 86 1015.2
20260906101019 74 0 0.0 0.0 0.00 0.00 0.00 86 1015.2
20260906100520 74 0 0.0 0.0 0.00 0.00 0.00 86 1015.2
20260906100037 74 0 0.0 0.0 0.00 0.00 0.00 86 1015.1
20260906095520 74 0 0.0 0.0 0.00 0.00 0.00 86 1015.1
20260906095019 74 0 0.0 0.0 0.00 0.00 0.00 86 1015.1
20260906094541 74 0 0.0 0.0 0.00 0.00 0.00 85 1015.0
20260906094020 74 0 0.0 0.0 0.00 0.00 0.00 85 1015.0
20260906093518 74 0 0.0 0.0 0.00 0.00 0.00 85 1015.0
20260906093036 74 0 0.0 0.0 0.00 0.00 0.00 84 1014.9
20260906092518 75 0 0.0 0.0 0.00 0.00 0.00 84 1014.9
20260906092020 75 0 0.0 0.0 0.00 0.00 0.00 84 1014.8
20260906091536 75 0 0.0 0.0 0.00 0.00 0.00 85 1014.7
20260906091018 74 0 0.0 0.0 0.00 0.00 0.00 85 1014.7
20260906090519 74 0 0.0 0.0 0.00 0.00 0.00 84 1014.7
20260906090047 75 0 0.0 0.0 0.00 0.00 0.00 84 1014.7
20260906085518 75 0 0.0 0.0 0.00 0.00 0.00 84 1014.6
20260906085018 75 0 0.0 0.0 0.00 0.00 0.00 84 1014.6
20260906084536 75 0 0.0 0.0 0.00 0.00 0.00 83 1014.6
20260906084021 75 0 0.0 0.0 0.00 0.00 0.00 83 1014.5
20260906083516 75 0 0.0 0.0 0.00 0.00 0.00 83 1014.6
20260906083042 75 0 0.0 0.0 0.00 0.00 0.00 83 1014.5
20260906082519 75 0 0.0 0.0 0.00 0.00 0.00 83 1014.4
20260906082018 75 0 0.0 2.0 0.00 0.00 0.00 83 1014.5
20260906081533 75 0 0.0 2.0 0.00 0.00 0.00 83 1014.4
20260906081021 75 62 2.0 2.0 0.00 0.00 0.00 83 1014.3
20260906080518 75 63 1.0 2.0 0.00 0.00 0.00 83 1014.2
20260906080039 74 72 1.0 2.0 0.00 0.00 0.00 84 1014.3
20260906075516 74 60 0.0 1.0 0.00 0.00 0.00 85 1014.4
20260906075018 73 0 0.0 0.0 0.00 0.00 0.00 84 1014.3
20260906074535 74 0 0.0 0.0 0.00 0.00 0.00 84 1014.4
20260906074016 74 0 0.0 0.0 0.00 0.00 0.00 83 1014.3
20260906073517 74 0 0.0 0.0 0.00 0.00 0.00 83 1014.4
20260906073037 74 0 0.0 0.0 0.00 0.00 0.00 83 1014.5
20260906072519 74 0 0.0 0.0 0.00 0.00 0.00 83 1014.4
20260906072020 75 0 0.0 0.0 0.00 0.00 0.00 82 1014.5
20260906071534 75 0 0.0 0.0 0.00 0.00 0.00 82 1014.6
20260906071017 75 0 0.0 0.0 0.00 0.00 0.00 82 1014.6
20260906070515 75 0 0.0 0.0 0.00 0.00 0.00 81 1014.7
20260906070035 75 0 0.0 0.0 0.00 0.00 0.00 82 1014.8
20260906065518 75 0 0.0 0.0 0.00 0.00 0.00 83 1014.8
20260906065018 74 0 0.0 0.0 0.00 0.00 0.00 84 1014.8
20260906064535 74 0 0.0 0.0 0.00 0.00 0.00 85 1014.8
20260906064016 73 0 0.0 0.0 0.00 0.00 0.00 85 1015.0
20260906063520 74 0 0.0 0.0 0.00 0.00 0.00 84 1014.9
20260906063034 74 0 0.0 0.0 0.00 0.00 0.00 84 1014.9
20260906062521 74 0 0.0 0.0 0.00 0.00 0.00 84 1015.0
20260906062019 74 0 0.0 0.0 0.00 0.00 0.00 84 1014.9
20260906061534 74 0 0.0 0.0 0.00 0.00 0.00 83 1014.9
20260906061019 74 0 0.0 0.0 0.00 0.00 0.00 84 1015.0
20260906060521 74 0 0.0 0.0 0.00 0.00 0.00 84 1014.9
20260906060035 75 0 0.0 0.0 0.00 0.00 0.00 83 1015.0
20260906055519 75 0 0.0 0.0 0.00 0.00 0.00 82 1015.0
20260906055020 75 0 0.0 0.0 0.00 0.00 0.00 82 1015.0
20260906054537 75 0 0.0 0.0 0.00 0.00 0.00 81 1014.9
20260906054016 76 0 0.0 0.0 0.00 0.00 0.00 81 1015.0
20260906053519 76 0 0.0 0.0 0.00 0.00 0.00 80 1015.1
20260906053035 76 0 0.0 0.0 0.00 0.00 0.00 79 1015.0
20260906052516 77 0 0.0 0.0 0.00 0.00 0.00 79 1015.0
20260906052016 77 0 0.0 0.0 0.00 0.00 0.00 79 1015.0
20260906051537 77 0 0.0 0.0 0.00 0.00 0.00 79 1015.0
20260906051021 77 0 0.0 0.0 0.00 0.00 0.00 78 1015.0
20260906050525 77 0 0.0 0.0 0.00 0.00 0.00 78 1014.9
20260906050035 78 0 0.0 0.0 0.00 0.00 0.00 78 1014.9
20260906045517 77 0 0.0 0.0 0.00 0.00 0.00 78 1014.8
20260906045018 77 0 0.0 0.0 0.00 0.00 0.00 78 1014.9
20260906044534 78 0 0.0 0.0 0.00 0.00 0.00 78 1014.9
20260906044020 78 0 0.0 0.0 0.00 0.00 0.00 78 1014.9
20260906043515 78 0 0.0 0.0 0.00 0.00 0.00 78 1014.9
20260906043035 78 0 0.0 0.0 0.00 0.00 0.00 78 1015.0
20260906042518 77 0 0.0 0.0 0.00 0.00 0.00 79 1015.0
20260906042017 77 0 0.0 0.0 0.00 0.00 0.00 80 1015.0
20260906041535 77 0 0.0 0.0 0.00 0.00 0.00 80 1015.0
20260906041021 77 0 0.0 0.0 0.00 0.00 0.00 79 1015.0
20260906040521 78 0 0.0 0.0 0.00 0.00 0.00 79 1015.0
20260906040035 78 0 0.0 0.0 0.00 0.00 0.00 79 1015.0
20260906035517 77 0 0.0 0.0 0.00 0.00 0.00 80 1014.9
20260906035017 76 0 0.0 0.0 0.00 0.00 0.00 82 1014.9
20260906034551 75 0 0.0 0.0 0.00 0.00 0.00 83 1014.8
20260906034024 75 0 0.0 0.0 0.00 0.00 0.00 83 1014.7
20260906033515 75 0 0.0 0.0 0.00 0.00 0.00 83 1014.7
20260906033035 76 0 0.0 0.0 0.00 0.00 0.00 83 1014.7
20260906032519 76 0 0.0 0.0 0.00 0.00 0.00 83 1014.6
20260906032020 76 0 0.0 0.0 0.00 0.00 0.00 84 1014.5
20260906031534 76 0 0.0 0.0 0.00 0.00 0.00 84 1014.5
20260906031018 76 0 0.0 0.0 0.00 0.00 0.00 84 1014.4
20260906030519 76 0 0.0 0.0 0.00 0.00 0.00 83 1014.5
20260906030035 77 0 0.0 0.0 0.00 0.00 0.00 83 1014.5
20260906025522 77 0 0.0 0.0 0.00 0.00 0.00 83 1014.4
20260906025016 77 0 0.0 0.0 0.00 0.00 0.00 81 1014.5
20260906024539 77 0 0.0 0.0 0.00 0.00 0.00 82 1014.5
20260906024019 77 0 0.0 0.0 0.00 0.00 0.00 81 1014.4
20260906023519 77 0 0.0 0.0 0.00 0.00 0.00 81 1014.3
20260906023032 77 0 0.0 0.0 0.00 0.00 0.00 80 1014.3
20260906022517 77 0 0.0 0.0 0.00 0.00 0.00 80 1014.3
20260906022016 78 0 0.0 0.0 0.00 0.00 0.00 79 1014.1
20260906021541 78 0 0.0 0.0 0.00 0.00 0.00 80 1014.0
20260906021018 78 0 0.0 0.0 0.00 0.00 0.00 80 1014.0
20260906020516 78 0 0.0 0.0 0.00 0.00 0.00 79 1013.9
20260906020036 78 0 0.0 0.0 0.00 0.00 0.00 79 1013.8
20260906015516 78 0 0.0 0.0 0.00 0.00 0.00 78 1013.8
20260906015020 79 0 0.0 0.0 0.00 0.00 0.00 77 1013.7
20260906014538 79 0 0.0 0.0 0.00 0.00 0.00 77 1013.6
20260906014020 79 0 0.0 0.0 0.00 0.00 0.00 76 1013.5
20260906013516 80 0 0.0 0.0 0.00 0.00 0.00 75 1013.6
20260906013036 80 0 0.0 0.0 0.00 0.00 0.00 75 1013.5
20260906012519 80 0 0.0 0.0 0.00 0.00 0.00 74 1013.6
20260906012016 81 0 0.0 0.0 0.00 0.00 0.00 73 1013.5
20260906011535 81 0 0.0 0.0 0.00 0.00 0.00 73 1013.4
20260906011016 82 0 0.0 0.0 0.00 0.00 0.00 72 1013.4
20260906010517 82 0 0.0 0.0 0.00 0.00 0.00 71 1013.4
20260906010041 83 0 0.0 0.0 0.00 0.00 0.00 69 1013.4
20260906005520 84 0 0.0 0.0 0.00 0.00 0.00 68 1013.3
20260906005019 85 0 0.0 0.0 0.00 0.00 0.00 66 1013.3
20260906004534 86 0 0.0 0.0 0.00 0.00 0.00 64 1013.3
20260906004022 86 0 0.0 0.0 0.00 0.00 0.00 63 1013.4
20260906003516 87 0 0.0 0.0 0.00 0.00 0.00 62 1013.3
20260906003034 88 0 0.0 0.0 0.00 0.00 0.00 61 1013.3
20260906002520 89 0 0.0 0.0 0.00 0.00 0.00 59 1013.2
20260906002017 90 0 0.0 0.0 0.00 0.00 0.00 58 1013.3
20260906001548 91 0 0.0 0.0 0.00 0.00 0.00 56 1013.2
20260906001017 91 0 0.0 0.0 0.00 0.00 0.00 55 1013.2
20260906000520 92 0 0.0 0.0 0.00 0.00 0.00 54 1013.3
20260906000037 93 0 0.0 0.0 0.00 0.00 0.00 53 1013.3
20260905235519 94 0 0.0 0.0 0.00 0.00 0.00 51 1013.2
20260905235019 94 0 0.0 3.0 0.00 0.00 0.00 50 1013.2
20260905234537 95 0 0.0 3.0 0.00 0.00 0.00 48 1013.2
20260905234016 95 60 2.0 4.0 0.00 0.00 0.00 47 1013.2
20260905233518 95 29 2.0 4.0 0.00 0.00 0.00 46 1013.2
20260905233035 95 27 1.0 4.0 0.00 0.00 0.00 46 1013.2
20260905232523 96 49 3.0 4.0 0.00 0.00 0.00 45 1013.2
20260905232022 96 0 2.0 4.0 0.00 0.00 0.00 45 1013.2
20260905231534 96 33 3.0 4.0 0.00 0.00 0.00 45 1013.0
20260905231026 96 58 2.0 5.0 0.00 0.00 0.00 43 1013.1
20260905230520 96 352 2.0 5.0 0.00 0.00 0.00 43 1013.2
20260905230038 96 6 3.0 5.0 0.00 0.00 0.00 44 1013.2
20260905225520 97 20 3.0 5.0 0.00 0.00 0.00 43 1013.2
20260905225017 97 15 3.0 6.0 0.00 0.00 0.00 43 1013.1
20260905224535 97 340 3.0 7.0 0.00 0.00 0.00 43 1013.2
20260905224018 97 29 4.0 8.0 0.00 0.00 0.00 43 1013.1
20260905223519 97 15 5.0 8.0 0.00 0.00 0.00 43 1013.2
20260905223048 97 30 5.0 10.0 0.00 0.00 0.00 42 1013.1
20260905222523 97 3 5.0 10.0 0.00 0.00 0.00 45 1013.2
20260905222020 97 34 6.0 10.0 0.00 0.00 0.00 43 1013.2
20260905221537 97 11 6.0 10.0 0.00 0.00 0.00 44 1013.2
20260905221019 98 16 6.0 9.0 0.00 0.00 0.00 45 1013.3
20260905220519 97 54 4.0 7.0 0.00 0.00 0.00 42 1013.3
20260905220035 98 20 4.0 9.0 0.00 0.00 0.00 41 1013.4
20260905215516 97 21 3.0 9.0 0.00 0.00 0.00 41 1013.4
20260905215019 98 6 3.0 8.0 0.00 0.00 0.00 42 1013.4
20260905214540 97 17 4.0 8.0 0.00 0.00 0.00 41 1013.5
20260905214020 98 23 3.0 6.0 0.00 0.00 0.00 41 1013.5
20260905213520 98 34 3.0 11.0 0.00 0.00 0.00 40 1013.5
20260905213036 98 12 4.0 11.0 0.00 0.00 0.00 39 1013.5
20260905212519 99 339 1.0 4.0 0.00 0.00 0.00 39 1013.6
20260905212017 99 22 2.0 4.0 0.00 0.00 0.00 39 1013.6
20260905211535 98 20 2.0 9.0 0.00 0.00 0.00 43 1013.7
20260905211016 98 103 3.0 9.0 0.00 0.00 0.00 42 1013.7
20260905210518 98 34 4.0 9.0 0.00 0.00 0.00 44 1013.8
20260905210045 98 58 1.0 9.0 0.00 0.00 0.00 43 1013.8
20260905205519 98 38 5.0 9.0 0.00 0.00 0.00 41 1013.8
20260905205020 98 25 3.0 8.0 0.00 0.00 0.00 43 1013.9
20260905204534 97 19 3.0 8.0 0.00 0.00 0.00 42 1014.0
20260905204017 98 20 5.0 8.0 0.00 0.00 0.00 42 1014.0
20260905203521 98 350 3.0 6.0 0.00 0.00 0.00 42 1014.0
20260905203037 98 19 2.0 6.0 0.00 0.00 0.00 41 1014.1
20260905202518 98 334 3.0 6.0 0.00 0.00 0.00 41 1014.2
20260905202017 98 53 3.0 6.0 0.00 0.00 0.00 42 1014.2
20260905201536 98 354 3.0 6.0 0.00 0.00 0.00 41 1014.2
20260905201017 98 341 3.0 8.0 0.00 0.00 0.00 41 1014.4
20260905200520 98 41 3.0 8.0 0.00 0.00 0.00 42 1014.5
20260905200105 97 18 4.0 8.0 0.00 0.00 0.00 43 1014.6
20260905195520 97 25 1.0 6.0 0.00 0.00 0.00 43 1014.5
20260905195020 97 69 3.0 9.0 0.00 0.00 0.00 43 1014.6
20260905194536 97 0 4.0 9.0 0.00 0.00 0.00 41 1014.8
20260905194018 98 46 4.0 6.0 0.00 0.00 0.00 43 1014.8
20260905193518 98 44 3.0 8.0 0.00 0.00 0.00 44 1014.8
20260905193040 97 55 3.0 8.0 0.00 0.00 0.00 43 1014.9
20260905192516 98 319 2.0 6.0 0.00 0.00 0.00 42 1015.0
20260905192016 97 345 3.0 6.0 0.00 0.00 0.00 43 1015.0
20260905191535 97 360 3.0 6.0 0.00 0.00 0.00 41 1015.0
20260905191020 97 0 2.0 6.0 0.00 0.00 0.00 42 1015.1
20260905190519 97 28 3.0 8.0 0.00 0.00 0.00 43 1015.2
20260905190033 97 68 5.0 9.0 0.00 0.00 0.00 42 1015.1
20260905185520 98 20 5.0 10.0 0.00 0.00 0.00 42 1015.2
20260905185018 98 25 4.0 10.0 0.00 0.00 0.00 44 1015.3
20260905184545 98 336 1.0 6.0 0.00 0.00 0.00 42 1015.3
20260905184016 98 334 3.0 8.0 0.00 0.00 0.00 41 1015.3
20260905183517 97 15 3.0 13.0 0.00 0.00 0.00 42 1015.4
20260905183041 98 5 3.0 13.0 0.00 0.00 0.00 42 1015.5
20260905182521 97 73 2.0 6.0 0.00 0.00 0.00 45 1015.6
20260905182023 97 316 3.0 7.0 0.00 0.00 0.00 46 1015.6
20260905181543 97 240 2.0 7.0 0.00 0.00 0.00 45 1015.7
20260905181017 97 269 4.0 7.0 0.00 0.00 0.00 45 1015.7
20260905180518 97 248 3.0 6.0 0.00 0.00 0.00 44 1015.8
20260905180040 97 0 0.0 8.0 0.00 0.00 0.00 44 1015.8
20260905175521 97 49 3.0 8.0 0.00 0.00 0.00 46 1015.8
20260905175015 97 234 5.0 7.0 0.00 0.00 0.00 44 1015.9
20260905174536 97 253 3.0 7.0 0.00 0.00 0.00 45 1016.0
20260905174018 96 263 2.0 6.0 0.00 0.00 0.00 45 1016.0
20260905173516 96 320 2.0 7.0 0.00 0.00 0.00 45 1016.0
20260905173042 95 356 3.0 8.0 0.00 0.00 0.00 47 1016.0
20260905172520 95 28 4.0 8.0 0.00 0.00 0.00 46 1016.0
20260905172021 96 322 3.0 6.0 0.00 0.00 0.00 46 1016.1
20260905171537 96 227 2.0 7.0 0.00 0.00 0.00 47 1016.1
20260905171021 96 331 2.0 7.0 0.00 0.00 0.00 46 1016.1